Regional Weather Roundup
Issued by NWS

Home | Current Version | Previous Version | Text Only | Print | Product List | Glossary Off
Versions: 1 2 3 4 5 6 7 8 9 10 11 12 13 14 15 16 17 18 19 20 21 22 23 24 25 26 27

000
ASUS45 KBOU 220807
RWRCO

WEATHER ROUNDUP FOR COLORADO
NATIONAL WEATHER SERVICE DENVER/BOULDER CO
200 AM MDT SAT APR 22 2017

NOTE: "FAIR" INDICATES FEW OR NO CLOUDS BELOW 12000 FEET WITH NO
SIGNIFICANT WEATHER AND/OR OBSTRUCTIONS TO VISIBILITY.

COZ001>005-013-030-031-220900-
...NORTHWEST COLORADO...

CITY           SKY/WX    TMP DP  RH WIND       PRES   REMARKS
CRAIG          FAIR      33  28  81 W3        30.23R
HAYDEN         FAIR      32  25  74 E9        30.22S WCI  24
MEEKER         CLOUDY    34  30  85 NE5       30.22F WCI  30
MOUNT WERNER   NOT AVBL
STEAMBOAT SPGS CLOUDY    31  29  94 CALM      30.23R
WALDEN           N/A     19  18  93 SE6       30.23S WCI  11
$$

COZ006>008-011-220900-
...WEST CENTRAL VALLEYS...

CITY           SKY/WX    TMP DP  RH WIND       PRES   REMARKS
GRAND JUNCTION CLOUDY    49  25  39 VRB6      30.14R
MONTROSE       FAIR      34  22  61 SE6       30.17S WCI  29
EAGLE          MOCLDY    30  27  88 CALM      30.25S
RIFLE          CLOUDY    38  32  79 E3        30.20R
DELTA          FAIR      41  22  47 NE7       30.15S
NUCLA          FAIR      36  18  48 E7        30.18F
$$

COZ017>023-064>068-220900-
...SOUTHWEST COLORADO...

CITY           SKY/WX    TMP DP  RH WIND       PRES   REMARKS
DURANGO        FAIR      32  14  47 CALM      30.11S
CORTEZ         FAIR      27  15  61 VRB3      30.14R
PAGOSA SPRINGS FAIR      32  14  47 CALM      30.14S
TELLURIDE      FAIR      31  17  56 SE5       30.20F WCI  26
WOLF CREEK PAS FAIR      21  12  68 CALM      30.27S
$$

COZ009-010-012-014-032>034-037-058>063-220900-
...CENTRAL COLORADO...

CITY           SKY/WX    TMP DP  RH WIND       PRES   REMARKS
ASPEN          MOCLDY    28  23  81 SW6       30.19S WCI  22
BUENA VISTA    CLOUDY    33  23  65 NW12      30.19F WCI  25
COPPER MTN     CLOUDY    19  14  79 MISG      30.22F
BERTHOUD PASS  HAZE      14   3  62 N5        30.22S VSB<1/4 WCI   6
COTTONWOOD PAS FAIR      32  21  64 CALM      30.21F
GUNNISON       FAIR      29  21  72 N6        30.19S WCI  23
KREMMLING      MOCLDY    36  32  87 CALM      30.24S
LEADVILLE      FAIR      17  13  84 NE7       30.20F WCI   8
MONARCH PASS   CLOUDY    19  18  93 E6        30.32F WCI  11
SALIDA         CLOUDY    35  28  74 SE3       30.27S
SUNLIGHT       MOCLDY    19  19 100 MISG      30.26S
WILKERSON PASS SNOW     N/A N/A N/A CALM      30.24F VSB 1/4
$$

COZ069>075-220900-
...SAN LUIS VALLEY/SANGRE DE CRISTO MOUNTAINS...

CITY           SKY/WX    TMP DP  RH WIND       PRES   REMARKS
ALAMOSA        FAIR      31  25  78 NW7       30.16R WCI  24
LA VETA PASS   FOG       27  23  86 MISG      30.32S VSB 1/2
SAGUACHE       FAIR      36  18  48 N20G25    30.16S
$$

COZ035-036-038>040-220900-
...NORTHERN COLORADO FRONT RANGE...

CITY           SKY/WX    TMP DP  RH WIND       PRES   REMARKS
DENVER INTL AP LGT RAIN  38  35  89 SE9       30.22F
DMNS CITY PARK   N/A     38  36  92 E10       30.23S
AURORA         DRIZZLE   37  36  99 E5        30.23S
FRONT RANGE AP CLOUDY    37  36  93 E14       30.23F
ERIE MUNI ARPT RAIN      39  37  93 E3        30.23S
BOULDER MUN AP CLOUDY    37  37 100 NE3       30.22F
CENTENNIAL     CLOUDY    34  33  96 CALM      30.22S
BROOMFIELD     CLOUDY    37  36  93 E3        30.22F
FORT COLLINS   LGT RAIN  39  37  92 SE7       30.24F
LONGMONT       LGT SNOW  42  39  91 E3        30.25S
$$

COZ041-046-047-076>085-087-088-220900-
...PIKES PEAK/PALMER DIVIDE AND SOUTHERN FOOTHILLS...

CITY           SKY/WX    TMP DP  RH WIND       PRES   REMARKS
COLO. SPRINGS  CLOUDY    36  34  92 E9        30.22F
A. F. ACADEMY  CLOUDY    36  31  83 NE7       30.20F
SCHRIEVER AFB  LGT SNOW  33  33  99 S5        30.23  WCI  28
ELLICOTT       LGT SNOW N/A N/A N/A E8        30.21S
FALCON         CLOUDY    34  33  96 SE5       30.23S FOG     WCI  30
FORT CARSON    DRIZZLE   36  34  93 E9        30.22S
LIMON          CLOUDY    37  36  96 CALM      30.23S
MONUMENT HILL  FOG       28  28 100 W3        30.23S VSB 1/4
TRINIDAD       CLOUDY    41  35  79 NE3       30.20F
$$

COZ042>045-048>051-090-091-220900-
...NORTHEAST COLORADO...

CITY           SKY/WX    TMP DP  RH WIND       PRES   REMARKS
GREELEY ARPT   LGT RAIN  41  39  93 SE5       30.25F
AKRON          FOG       35  34  96 NW3       30.23S VSB 1/2
BURLINGTON     CLOUDY    40  38  93 N3        30.23S
WRAY           NOT AVBL
STERLING       FAIR      37  37 100 CALM      30.24S FOG
HOLYOKE        CLOUDY    41  37  87 N6        30.25S
FORT MORGAN    MOCLDY    38  37  95 W3        30.24S
$$

COZ086-089-092>099-220900-
...SOUTHEAST COLORADO...

CITY           SKY/WX    TMP DP  RH WIND       PRES   REMARKS
PUEBLO         LGT RAIN  41  38  89 E6        30.22S
LA JUNTA       CLOUDY    43  37  79 NE6       30.23F
LAMAR          CLOUDY    42  38  85 CALM      30.21S
SPRINGFIELD      N/A     39  36  89 N10       30.20S
$$




USA.gov is the U.S. government's official web portal to all federal, state and local government web resources and services.